Weather History for KIEN - December, 2012

Change the Weather History Date:

Wednesday, December 5, 2012

  Actual Average Record
Temperature  
Mean Temperature 48 °F 25 °F  
Max Temperature 66 °F 38 °F 66 °F (2012)
Min Temperature 30 °F 12 °F -23 °F (2013)
Degree Days  
Heating Degree Days 17 40  
Month to date heating degree days 107 198  
Since 1 July heating degree days 1695 1888  
Cooling Degree Days 0 0  
Month to date cooling degree days 0 0  
Year to date cooling degree days 1103 717  
Moisture  
Dew Point 30 °F    
Average Humidity 50    
Maximum Humidity 72    
Minimum Humidity 28    
Precipitation  
Precipitation T in 0.01 in 0.00 in (2015)
Month to date precipitation T 0.05  
Year to date precipitation 11.03 17.22  
Sea Level Pressure  
Sea Level Pressure 29.84 in    
Wind  
Wind Speed 9 mph (WSW)    
Max Wind Speed 28 mph    
Max Gust Speed 37 mph    
Visibility 10 miles    
Events Rain    
T = Trace of Precipitation, MM = Missing Value Source: NWS Daily Summary

Daily Weather History Graph

Daily Weather History Graph

Search for Another Location

Airport or City:

Trip Planner

Search our weather history database for the weather conditions in past years. The results will help you decide how hot, cold, wet, or windy it might be!

Date:

Astronomy

Dec. 05, 2012 Rise Set
Actual Time 7:06 AM MST 4:15 PM MST
Civil Twilight 6:34 AM MST 4:47 PM MST
Nautical Twilight 5:58 AM MST 5:22 PM MST
Astronomical Twilight 5:24 AM MST 5:57 PM MST
Moon 11:15 PM MST (12/5) 11:23 AM MST (12/5)
Length of Visible Light 10h 13m
Length of Day
9h 09m
Waning Gibbous, 59% of the Moon is Illuminated
Dec 5
Waning Gibbous
Dec 6
Last Quarter
Dec 13
New
Dec 19
First Quarter
Dec 28
Full

Hourly Weather History & Observations

Time (MST) Temp. Windchill Dew Point Humidity Pressure Visibility Wind Dir Wind Speed Gust Speed Precip Events Conditions
12:52 AM 30.0 °F 24.1 °F 21.0 °F 69% 30.09 in 10.0 mi WSW 5.8 mph - N/A   Clear
1:52 AM 30.9 °F - 21.9 °F 69% 30.07 in 10.0 mi Calm Calm - N/A   Clear
2:52 AM 30.9 °F - 23.0 °F 72% 30.05 in 10.0 mi Calm Calm - N/A   Clear
3:52 AM 32.0 °F - 25.0 °F 75% 30.01 in 10.0 mi Calm Calm - N/A   Clear
4:52 AM 41.0 °F - 26.1 °F 55% 29.97 in 10.0 mi Calm Calm - N/A   Clear
5:52 AM 41.0 °F 35.8 °F 27.0 °F 57% 29.94 in 10.0 mi SSW 8.1 mph - N/A   Clear
7:52 AM 45.0 °F 39.3 °F 26.1 °F 48% 29.91 in 10.0 mi South 11.5 mph - N/A   Clear
8:52 AM 50.0 °F - 24.1 °F 36% 29.88 in 10.0 mi South 18.4 mph 25.3 mph N/A   Clear
9:52 AM 52.0 °F - 26.1 °F 37% 29.86 in 10.0 mi SSW 18.4 mph - N/A   Clear
10:52 AM 55.0 °F - 28.9 °F 37% 29.82 in 10.0 mi SSW 9.2 mph - N/A   Clear
11:52 AM 64.0 °F - 30.9 °F 29% 29.76 in 10.0 mi WSW 17.3 mph 24.2 mph N/A   Clear
12:52 PM 63.0 °F - 30.9 °F 30% 29.74 in 10.0 mi West 12.7 mph 19.6 mph N/A   Clear
1:52 PM 66.0 °F - 32.0 °F 28% 29.70 in 10.0 mi WSW 16.1 mph - N/A   Clear
2:52 PM 64.0 °F - 33.1 °F 31% 29.71 in 10.0 mi WNW 15.0 mph - N/A   Clear
3:52 PM 57.0 °F - 34.0 °F 42% 29.73 in 10.0 mi WSW 8.1 mph - N/A   Clear
4:52 PM 53.1 °F - 34.0 °F 48% 29.72 in 10.0 mi WNW 3.5 mph - N/A   Clear
5:52 PM 59.0 °F - 33.1 °F 38% 29.73 in 10.0 mi West 6.9 mph - N/A   Clear
6:52 PM 59.0 °F - 34.0 °F 39% 29.76 in 10.0 mi WNW 11.5 mph 23.0 mph 0.00 in Rain Light Rain
7:52 PM 59.0 °F - 35.1 °F 41% 29.75 in 10.0 mi West 12.7 mph - 0.00 in   Overcast
8:52 PM 55.0 °F - 35.1 °F 47% 29.77 in 10.0 mi NW 4.6 mph - N/A   Overcast
9:52 PM 48.0 °F - 37.9 °F 68% 29.78 in 10.0 mi SW 5.8 mph - N/A   Scattered Clouds
10:52 PM 48.9 °F - 37.9 °F 66% 29.81 in 10.0 mi Calm Calm - N/A   Overcast
11:52 PM 50.0 °F - 37.9 °F 63% 29.83 in 10.0 mi North 25.3 mph 36.8 mph 0.00 in Rain Light Rain